Regional Weather Roundup
Issued by NWS

Home | Current Version | Previous Version | Text Only | Print | Product List | Glossary Off
Versions: 1 2 3 4 5 6 7 8 9 10 11 12 13 14 15 16 17 18 19 20 21 22 23 24 25 26 27 28 29 30 31 32 33 34 35 36 37 38 39 40 41 42 43 44 45 46 47 48 49 50

623
ASUS43 KLOT 250009
RWRIL

ILLINOIS REGIONAL WEATHER ROUNDUP
NATIONAL WEATHER SERVICE CHICAGO/ROMEOVILLE IL
700 PM CDT SAT JUN 24 2017

NOTE: "FAIR" INDICATES FEW OR NO CLOUDS BELOW 12,000 FEET WITH NO
SIGNIFICANT WEATHER AND/OR OBSTRUCTIONS TO VISIBILITY.

* THESE STATIONS ARE NOT UNDER NWS QUALITY CONTROL. THEY ALSO MAY NOT
  REPORT WEATHER SUCH AS PRECIPITATION OR FOG.

ILZ001-002-007-009-015-016-024-250100-
NORTHWEST ILLINOIS

CITY           SKY/WX    TMP DP  RH WIND       PRES   REMARKS
MOLINE         SUNNY     74  43  32 W10       30.04F
6HR MIN TEMP:  72; 6HR MAX TEMP:  76;

STERLING*      SUNNY     71  45  39 W14       30.04S
SAVANNA*       PTSUNNY   71  44  38 SW10      30.01F
$$

ILZ003-004-008-010-011-017-018-250100-
NORTH CENTRAL ILLINOIS

CITY           SKY/WX    TMP DP  RH WIND       PRES   REMARKS
ROCKFORD       MOSUNNY   69  42  37 W10       30.03R
6HR MIN TEMP:  69; 6HR MAX TEMP:  74;

FREEPORT*      RAIN      59  50  72 NW20G44   30.07R
ROCHELLE*      SUNNY     69  45  42 W12       30.04S
DE KALB*       SUNNY     69  43  39 W13G21    30.04R
PERU*          SUNNY     70  42  37 W14       30.06R
$$

ILZ005-006-012>014-019>023-250100-
NORTHEAST ILLINOIS

CITY           SKY/WX    TMP DP  RH WIND       PRES   REMARKS
CHICAGO-OHARE  MOSUNNY   71  40  32 NW22      30.00R
6HR MIN TEMP:  71; 6HR MAX TEMP:  75;

CHICAGO-MIDWAY MOSUNNY   72  42  34 W16G25    30.01R
6HR MIN TEMP:  71; 6HR MAX TEMP:  75;

AURORA         SUNNY     71  41  33 NW17      30.03S
6HR MIN TEMP:  70; 6HR MAX TEMP:  74;

LANSING*       SUNNY     71  39  31 W13G23    30.02R
JOLIET*        SUNNY     73  42  33 NW7G17    30.03S
WAUKEGAN       SUNNY     69  42  37 NW8G17    29.99R
6HR MIN TEMP:  69; 6HR MAX TEMP:  72;

DUPAGE AIRPORT SUNNY     70  42  36 NW17G24   30.02R
6HR MIN TEMP:  69; 6HR MAX TEMP:  73;

WHEELING       SUNNY     70  42  36 NW16G24   30.02R
6HR MIN TEMP:  70; 6HR MAX TEMP:  74;

MORRIS*        SUNNY     72  42  34 NW16G24   30.03S
ROMEOVILLE*    SUNNY     71  38  29 NW13      30.03R
NORTHERLY ISL    N/A     70  38  31 NW13        N/A
$$

LMZ740>746-250100-
SOUTHERN LAKE MICHIGAN

STATION/POSITION SKY/WX   TEMP    WIND        PRES    VSBY  WAVE
                          AIR SEA DIR/SP/G                  HT/PER
                          (F)     (DEG/KT/KT) (MB)    (MI)  (FT/S)
SOUTHERN BUOY              65 63  280/  6/  8 1014.6          1/ 3
WILMETTE HARBOR            68 65  290/ 14/ 17   N/A           2/ 3
HARRISON CRIB              71     300/ 26/ 29   N/A
BURNHAM HARBOR             70                   N/A
CALUMET HARBOR             72     280/  6/ 17 1015.6R
BURNS HARBOR               69     280/ 15/ 18 1016.3R
MICHIGAN CITY              69     260/ 19/ 22   N/A
MICHIGAN CITY 6N           69 68  280/ 14/ 17   N/A           3/ 4
ST. JOSEPH                 69 69  290/  8/ 10 1015.6          2/ 4
$$

ILZ025>027-034>036-040-047-049-050-058-095>099-250100-
WEST-CENTRAL ILLINOIS

CITY           SKY/WX    TMP DP  RH WIND       PRES   REMARKS
QUINCY         SUNNY     74  42  31 W14       30.11F
GALESBURG*     SUNNY     72  43  35 W9G17     30.08S
MACOMB*        SUNNY     73  42  33 W10       30.11S
JACKSONVILLE*  SUNNY     73  42  32 NW15      30.11S
PITTSFIELD*    SUNNY     74  44  33 NW10      30.13S
$$

ILZ028>032-037-038-041>044-048-051>054-059>061-250100-
CENTRAL ILLINOIS

CITY           SKY/WX    TMP DP  RH WIND       PRES   REMARKS
PONTIAC        SUNNY     73  41  32 W16G23    30.07R
BLOOMINGTON    SUNNY     71  43  36 NW14      30.09R
DECATUR        SUNNY     73  40  30 NW15G24   30.10R
PEORIA         SUNNY     73  42  32 NW8       30.08S
6HR MIN TEMP:  73; 6HR MAX TEMP:  75;

LACON*         SUNNY     72  42  34 W9G18     30.06S
LINCOLN*       SUNNY     74  41  30 NW6G17    30.09R
SPRINGFIELD    SUNNY     76  42  29 NW16      30.10R
6HR MIN TEMP:  76; 6HR MAX TEMP:  80;

TAYLORVILLE    SUNNY     73  44  35 NW9       30.10S
6HR MIN TEMP:  73; 6HR MAX TEMP:  76;

$$

ILZ033-039-045-046-055>057-062-063-250100-
EAST-CENTRAL ILLINOIS

CITY           SKY/WX    TMP DP  RH WIND       PRES   REMARKS
CHAMPAIGN      SUNNY     72  41  32 NW13G21   30.08R
RANTOUL*       SUNNY     74  44  35 W14G22    30.08R
MATTOON        MOSUNNY   74  49  41 NW13      30.08R
PARIS*         MOSUNNY   73  51  46 NW12      30.07S
$$

ILZ079-100>102-250100-
SOUTHWEST ILLINOIS

CITY           SKY/WX    TMP DP  RH WIND       PRES   REMARKS
ALTON          MOSUNNY   73  50  43 NW12      30.12R
BELLEVILLE     SUNNY     76  49  38 NW12      30.12R
CAHOKIA*       SUNNY     78  43  28 N13G22    30.11R
SPARTA*        SUNNY     77  46  33 NW7       30.11S
$$

ILZ064>066-069>071-074>076-080>082-084>086-088>090-092>094-250100-
SOUTH-CENTRAL ILLINOIS

CITY           SKY/WX    TMP DP  RH WIND       PRES   REMARKS
CARBONDALE     CLOUDY    77  50  38 NW8       30.10R
6HR MIN TEMP:  76; 6HR MAX TEMP:  78;

CAIRO*         PTSUNNY   74  56  54 CALM      30.11R
EFFINGHAM*     SUNNY     75  48  38 W9        30.10S
MT. VERNON     SUNNY     75  51  43 VRB3      30.11R
CENTRALIA*     SUNNY     76  51  41 NW9       30.10R
SALEM*         SUNNY     76  47  35 NW8       30.11R
METROPOLIS*    PTSUNNY   73  57  56 W3        30.11R
$$

ILZ067-068-072-073-078-083-087-091-250100-
SOUTHEAST ILLINOIS

CITY           SKY/WX    TMP DP  RH WIND       PRES   REMARKS
LAWRENCEVILLE  MOSUNNY   75  51  43 NW9       30.09R
FLORA*         CLOUDY    76  48  37 W10       30.10R
FAIRFIELD*     CLOUDY    75  49  40 NW3       30.09S
HARRISBURG*    MOSUNNY   76  54  46 NW3       30.10S
ROBINSON*      MOSUNNY   73  51  45 W10       30.09S
CARMI*         MOSUNNY   75  53  45 NW9       30.09R
$$

ABBREVIATIONS USED IN REMARKS
   TC - TEMPERATURE IN CELSIUS
  WCI - WIND CHILL INDEX
   HX - HEAT INDEX
  VSB - VISIBILITY
$$





USA.gov is the U.S. government's official web portal to all federal, state and local government web resources and services.